Regional Weather Roundup
Issued by NWS

Home | Current Version | Previous Version | Text Only | Print | Product List | Glossary Off
Versions: 1 2 3 4 5 6 7 8 9 10 11 12 13 14 15 16 17 18 19 20 21 22 23 24 25 26 27 28 29 30 31 32 33 34 35 36 37 38 39 40 41 42 43 44 45 46 47 48 49 50

168
ASUS43 KIND 271009
RWRIN

WEATHER ROUNDUP FOR INDIANA
NATIONAL WEATHER SERVICE INDIANAPOLIS IN
600 AM EDT TUE JUN 27 2017

NOTE: "FAIR" INDICATES FEW OR NO CLOUDS BELOW 12,000 FEET WITH NO
SIGNIFICANT WEATHER AND/OR OBSTRUCTIONS TO VISIBILITY.

* - STATION DOES NOT REPORT WEATHER SUCH AS PRECIPITATION OR FOG.

+ - STATION NOT QUALITY CONTROLLED BY THE NATIONAL WEATHER SERVICE.
    USE DATA WITH CAUTION...ESPECIALLY DEWPOINT AND RELATIVE
    HUMIDITY OBSERVATIONS.

INZ001>003-010>013-019-020-271100-
NORTHWEST INDIANA

CITY           SKY/WX    TMP DP  RH WIND       PRES   REMARKS
GARY /AIRPORT/ CLEAR     48  45  87 CALM      30.12R
KNOX *+        CLEAR     50  41  71 W5        30.11R
LA PORTE +     CLEAR     49  48  96 CALM      30.12R
MICHIGAN CITY+ CLEAR     55  48  76 CALM      30.11R
MONTICELLO +   CLEAR     50  48  92 CALM      30.12R
VALPARAISO     CLEAR     52  46  80 SW6       30.12R

$$

LMZ046-743>745-271100-
SOUTHERN LAKE MICHIGAN

STATION/POSITION TIME  TEMP    WIND        PRES    WAVE
                       AIR SEA DIR/SP/G            HT
                 (UTC) (F)     (DEG/KT/KT) (MB)    (FT)
BURNS HARBOR     0940   61     330/  7/ 10 1019.6S
MICHIGAN CITY    0940   60     320/ 12/ 14   N/A
5NW MICH CITY    1000   60 65  320/  8/ 12   N/A     3

$$

INZ004-005-014>016-021>024-271100-
NORTH CENTRAL INDIANA

CITY           SKY/WX    TMP DP  RH WIND       PRES   REMARKS
GOSHEN         CLEAR     49  45  86 SW3       30.10R
LOGANSPORT +   CLEAR     48  46  93 W5        30.12R
PERU/GRISSOM   CLEAR     50  50  99 W6        30.10R
ROCHESTER +    CLEAR     52  48  87 CALM      30.11R
SOUTH BEND     CLEAR     48  47  96 W3        30.11R
WARSAW +       PTCLDY    48  45  87 W3        30.10R

$$

INZ006>009-017-018-025>027-271100-
NORTHEAST INDIANA

CITY           SKY/WX    TMP DP  RH WIND       PRES   REMARKS
AUBURN +       CLEAR     50  45  81 CALM      30.09R
FORT WAYNE     PTCLDY    52  48  86 W7        30.09R
HUNTINGTON +   CLEAR     51  50  95 CALM      30.10R
KENDALLVILLE + PTCLDY    51  48  90 CALM      30.09R

$$

INZ028-029-035-036-043>045-051>053-271100-
WEST CENTRAL INDIANA

CITY           SKY/WX    TMP DP  RH WIND       PRES   REMARKS
CRAWFORDSVL +  CLEAR     46  46 100 CALM      30.13R
GREENCASTLE +  CLEAR     46  45  93 CALM      30.13R
LAFAYETTE      FOG       49  49 100 W3        30.12R VSB 1/4
TERRE HAUTE    CLEAR     50  48  93 CALM      30.14R

$$

INZ030>032-037>040-046>048-054>057-064-065-271100-
CENTRAL INDIANA

CITY           SKY/WX    TMP DP  RH WIND       PRES   REMARKS
CP ATTERBURY + CLEAR     48  46  93 CALM      30.13R
FRANKFORT +    PTCLDY    50  49  97 W6        30.13S FOG
INDIANAPOLIS   CLEAR     51  48  89 W5        30.12R
-EAGLE CREEK   CLEAR     53  49  86 W6        30.12R
KOKOMO +       CLEAR     51  49  92 W7        30.12R
MT COMFORT *+  CLEAR     50  48  93 W3        30.12R
SHELBYVILLE    CLEAR     53  48  83 CALM      30.11R
ZIONSVILLE +   PTCLDY    49  48  99 CALM      30.13R

$$

INZ033-034-041-042-049-050-058-059-271100-
EAST CENTRAL INDIANA

CITY           SKY/WX    TMP DP  RH WIND       PRES   REMARKS
MUNCIE         CLEAR     52  49  89 W5        30.11R
RICHMOND +     CLEAR     46  46 100 CALM      30.11R FOG

$$

INZ060-061-067>069-081>083-085>088-271100-
SOUTHWEST INDIANA

CITY           SKY/WX    TMP DP  RH WIND       PRES   REMARKS
EVANSVILLE     CLEAR     55  52  89 CALM      30.14R
HUNTINGBURG *+ CLEAR     55  54  96 CALM      30.14R
WASHINGTON +   CLEAR     51  49  93 CALM      30.13R

$$

INZ062-063-066-070>080-084-089>092-271100-
SOUTH CENTRAL AND SOUTHEAST INDIANA

CITY           SKY/WX    TMP DP  RH WIND       PRES   REMARKS
BEDFORD +      CLEAR     50  46  87 CALM      30.13R
BLOOMINGTON    CLEAR     52  47  83 CALM      30.13R
MADISON *+     CLEAR     52  50  93 CALM      30.15R
NORTH VERNON + CLEAR     52  50  93 CALM      30.13R
SEYMOUR +      CLEAR     54  52  94 CALM      30.13R

$$





USA.gov is the U.S. government's official web portal to all federal, state and local government web resources and services.